#timestamp,LO_Frequency,Hit,StdDev 
1693011615.3,286047003.3,N
1693011635.2,286047005.8,Y
1693011655.9,286047002.1,P
1693011675.7,286047002.5,P
1693011695.6,286047002.0,P
1693011715.4,286047004.4,Y
1693011735.3,286047000.7,P
1693011755.1,286047000.9,N
1693011756.0,286047000.9,N
1693011775.8,286047000.4,N
1693011795.7,286047000.3,N
1693011815.5,286046999.8,N
1693011835.3,286047002.6,Y
1693011855.2,286047000.0,P
1693011875.0,286047000.0,N
1693011875.9,286047000.0,N
1693011895.8,286047000.1,N
1693011915.6,286047000.0,N
1693011935.4,286047000.2,N
1693011955.3,286047000.4,N
1693011975.1,286046999.9,N
1693011995.8,286047000.2,N
1693012015.7,286047002.8,Y
1693012035.5,286047000.0,P
1693012055.4,286047002.7,P
1693012075.2,286046999.7,N
1693012095.0,286046999.7,N
1693012095.9,286046999.7,N
1693012115.8,286047002.8,N
1693012135.6,286047000.3,N
1693012155.4,286047000.3,N
1693012175.3,286046999.8,N
1693012195.1,286047000.6,N
1693012215.9,286046999.9,N
1693012235.7,286047000.9,N
1693012255.5,286047000.3,N
1693012275.4,286047000.7,N
1693012295.2,286047001.1,N
1693012315.0,286047001.1,N
1693012316.0,286047001.1,N
1693012335.8,286047000.5,N
1693012355.6,286046999.7,N
1693012375.5,286046999.7,N
1693012395.3,286047002.3,N
1693012415.1,286047002.3,N
1693012435.9,286046999.8,N
1693012455.7,286047002.4,N
1693012475.6,286047002.8,N
1693012495.4,286047002.8,N
1693012515.2,286047002.0,N
1693012535.1,286047001.9,N
1693012536.0,286047001.9,N
1693012555.8,286046999.8,N
1693012575.6,286047000.5,N
1693012595.5,286047000.2,N
1693012615.3,286046999.8,N
1693012635.1,286047002.4,N
1693012655.9,286047002.4,N
1693012675.7,286047002.4,N
1693012695.6,286047002.8,N
1693012715.4,286047002.4,N
1693012735.2,286047001.9,N
1693012755.1,286047000.1,N
1693012756.0,286047000.1,N
1693012775.8,286047001.0,N
1693012795.6,286047000.8,N
1693012815.5,286047000.3,N
1693012835.3,286047000.0,N
1693012855.2,286047000.6,N
1693012875.9,286046998.2,N
1693012895.7,286046998.8,N
1693012915.6,286047000.8,N
1693012935.4,286046999.3,N
1693012955.2,286046997.1,N
1693012975.1,286046997.7,N
1693012976.0,286046997.7,N
1693012995.8,286046997.5,N
1693013015.7,286046994.9,Y
1693013035.5,286046997.6,P
1693013055.3,286046997.1,N
1693013075.2,286046997.9,N
1693013095.0,286046997.9,N
1693013095.9,286046997.9,N
1693013115.8,286046997.6,N
1693013135.6,286046997.6,N
1693013155.4,286046995.7,Y
1693013175.3,286046997.2,P
1693013195.1,286046997.1,P
1693013215.9,286046997.0,P
1693013235.7,286046999.1,N
1693013255.5,286046999.1,N
1693013275.4,286046998.7,N
1693013295.2,286046998.9,N
1693013315.0,286046999.3,N
1693013315.9,286046999.3,N
1693013335.8,286046999.2,N
1693013355.6,286046999.4,N
1693013375.5,286046999.2,N
1693013395.3,286046999.5,N
1693013415.1,286046998.3,N
1693013435.9,286046996.9,Y
1693013455.7,286046998.8,P
1693013475.6,286046998.9,P
1693013495.4,286046999.3,P
1693013515.2,286046999.6,N
1693013535.1,286046996.5,Y
1693013536.0,286046996.5,P
1693013555.8,286047000.9,N
1693013575.6,286047000.7,N
1693013595.5,286046998.6,N
1693013615.3,286046998.7,N
1693013635.2,286046998.4,N
1693013655.9,286047001.1,N
1693013675.7,286047000.5,N
1693013695.6,286047000.6,N
1693013715.4,286047001.0,N
1693013735.2,286047000.8,N
1693013755.1,286047001.1,N
1693013756.0,286047001.1,N
1693013775.8,286047001.0,N
1693013795.7,286047000.1,N
1693013815.5,286047001.1,N
1693013835.3,286047000.7,N
1693013855.2,286047000.2,N
1693013875.0,286047002.3,N
1693013875.9,286047002.3,N
1693013895.7,286047001.9,N
1693013915.6,286047001.6,N
1693013935.4,286047002.5,N
1693013955.3,286047000.4,N
1693013975.1,286047000.5,N
1693013976.0,286047000.5,N
1693013995.8,286047000.7,N
1693014015.7,286047000.8,N
1693014035.5,286046998.6,N
1693014055.3,286047001.0,N
1693014075.2,286047000.8,N
1693014095.0,286047000.7,N
1693014095.9,286047000.7,N
1693014115.8,286046998.3,N
1693014135.6,286047000.4,N
1693014155.4,286047000.3,N
1693014175.3,286047001.0,N
1693014195.1,286047000.3,N
1693014215.8,286047000.2,N
1693014235.7,286047002.7,Y
1693014255.5,286047000.8,P
1693014275.4,286046998.2,P
1693014295.2,286047001.1,N
1693014315.0,286047002.4,N
1693014315.9,286047002.4,N
1693014335.8,286047002.1,N
1693014355.6,286047001.9,N
1693014375.4,286047002.8,N
1693014395.3,286046999.9,N
1693014415.1,286047000.1,N
1693014435.9,286047000.7,N
1693014455.7,286047001.1,N
1693014475.5,286046998.9,N
1693014495.4,286047000.7,N
1693014515.2,286047000.1,N
1693014535.0,286047000.1,N
1693014535.9,286047000.1,N
1693014555.8,286047002.8,N
1693014575.6,286047000.0,N
1693014595.5,286047000.2,N
1693014615.3,286046999.9,N
1693014635.1,286047000.9,N
1693014655.9,286046999.7,N
1693014675.7,286046999.9,N
1693014695.5,286046999.9,N
1693014715.4,286047000.0,N
1693014735.2,286047000.6,N
1693014755.0,286047002.4,N
1693014756.0,286047002.4,N
1693014775.8,286047002.3,N
1693014795.6,286047000.0,N
1693014815.5,286047002.8,N
1693014835.3,286047002.2,N
1693014855.1,286047001.6,N
1693014875.9,286047001.3,N
1693014895.7,286047005.6,Y
1693014915.5,286047003.9,P
1693014935.4,286047003.7,N
1693014955.2,286047003.6,N
1693014975.1,286047004.0,Y
1693014976.0,286047004.0,P
1693014995.8,286047000.4,N
1693015015.6,286047001.2,N
1693015035.5,286047001.2,N
1693015055.3,286047001.1,N
1693015075.2,286047000.0,N
1693015095.9,286047000.3,N
1693015115.7,286047002.3,N
1693015135.6,286047002.3,N
1693015155.4,286047002.1,N
1693015175.2,286047001.6,N
1693015195.1,286047002.5,N
1693015196.0,286047002.5,N
